Childress, TX

12:37 AM CDT on May 26, 2017 (GMT -0500)
Childress Municipal

Weather History for KCDS - July, 2013

Change the Weather History Date:

Thursday, July 11, 2013

  Actual Average Record
Temperature  
Mean Temperature 91 °F 83 °F  
Max Temperature 104 °F 96 °F 109 °F (1940)
Min Temperature 77 °F 71 °F 60 °F (1999)
Degree Days  
Heating Degree Days 0 0  
Month to date heating degree days 0 0  
Since 1 June heating degree days 0 2  
Since 1 July heating degree days 0 0  
Cooling Degree Days 26 18  
Month to date cooling degree days 198 196  
Year to date cooling degree days 1051 929  
Since 1 June cooling degree days 700 617  
Growing Degree Days 40 (Base 50)    
Moisture  
Dew Point 59 °F    
Average Humidity 39    
Maximum Humidity 55    
Minimum Humidity 23    
Precipitation  
Precipitation 0.00 in 0.06 in 1.72 in (2010)
Month to date precipitation T 0.80  
Year to date precipitation 8.12 13.32  
Snow  
Snow 0.00 in 0.00 in - ()
Month to date snowfall 0.0 0.0  
Since 1 June snowfall 0.0 0.0  
Since 1 July snowfall 0.0 0.0  
Snow Depth -    
Sea Level Pressure  
Sea Level Pressure 29.90 in    
Wind  
Wind Speed 8 mph (ESE)    
Max Wind Speed 20 mph    
Max Gust Speed 25 mph    
Visibility 10 miles    
Events Thunderstorm    
T = Trace of Precipitation, MM = Missing Value Source: NWS Daily Summary

Daily Weather History Graph

Daily Weather History Graph

Search for Another Location

Airport or City:

Trip Planner

Search our weather history database for the weather conditions in past years. The results will help you decide how hot, cold, wet, or windy it might be!

Date:

Astronomy

Jul. 11, 2013 Rise Set
Actual Time 6:37 AM CDT 8:55 PM CDT
Civil Twilight 6:08 AM CDT 9:24 PM CDT
Nautical Twilight 5:33 AM CDT 9:59 PM CDT
Astronomical Twilight 4:54 AM CDT 10:38 PM CDT
Moon 9:47 AM CDT (7/11) 10:48 PM CDT (7/11)
Length of Visible Light 15h 15m
Length of Day
14h 17m
Waxing Crescent, 11% of the Moon is Illuminated
Jul 11
Waxing Crescent
Jul 15
First Quarter
Jul 22
Full
Jul 29
Last Quarter
Aug 6
New

Hourly Weather History & Observations

Time (CDT) Temp. Heat Index Dew Point Humidity Pressure Visibility Wind Dir Wind Speed Gust Speed Precip Events Conditions
12:53 AM 82.9 °F 82.1 °F 55.9 °F 39% 29.91 in 10.0 mi SSE 6.9 mph - N/A   Clear
1:53 AM 81.0 °F 80.8 °F 55.9 °F 42% 29.91 in 10.0 mi SSE 8.1 mph - N/A   Clear
2:53 AM 80.1 °F 80.2 °F 55.9 °F 43% 29.91 in 10.0 mi SSE 6.9 mph - N/A   Clear
3:53 AM 80.1 °F 80.2 °F 55.9 °F 43% 29.90 in 10.0 mi SE 5.8 mph - N/A   Clear
4:53 AM 80.1 °F 80.2 °F 55.9 °F 43% 29.89 in 10.0 mi SE 5.8 mph - N/A   Clear
5:53 AM 80.1 °F 80.2 °F 55.9 °F 43% 29.91 in 10.0 mi North 12.7 mph 24.2 mph N/A   Clear
6:53 AM 80.1 °F 80.9 °F 60.1 °F 50% 29.93 in 10.0 mi NE 6.9 mph - N/A   Clear
7:53 AM 81.0 °F 81.6 °F 60.1 °F 49% 29.93 in 10.0 mi ENE 9.2 mph - N/A   Partly Cloudy
8:53 AM 84.9 °F 85.0 °F 61.0 °F 44% 29.94 in 10.0 mi ENE 4.6 mph - N/A   Clear
9:53 AM 89.1 °F 88.8 °F 60.1 °F 38% 29.95 in 10.0 mi Calm Calm - N/A   Clear
10:53 AM 91.0 °F 90.5 °F 60.1 °F 35% 29.94 in 10.0 mi Calm Calm - N/A   Clear
11:53 AM 95.0 °F 94.0 °F 57.9 °F 29% 29.93 in 10.0 mi North 6.9 mph - N/A   Clear
12:53 PM 97.0 °F 96.1 °F 57.9 °F 27% 29.92 in 10.0 mi Variable 3.5 mph - N/A   Clear
1:53 PM 100.9 °F 100.0 °F 57.0 °F 23% 29.89 in 10.0 mi ENE 5.8 mph - N/A   Clear
2:53 PM 99.0 °F 97.7 °F 55.9 °F 24% 29.87 in 10.0 mi East 3.5 mph - N/A   Scattered Clouds
3:53 PM 100.9 °F 99.6 °F 55.0 °F 22% 29.84 in 10.0 mi SW 8.1 mph - N/A   Scattered Clouds
4:53 PM 100.9 °F 100.0 °F 57.0 °F 23% 29.82 in 10.0 mi South 8.1 mph 18.4 mph N/A   Clear
5:06 PM 100.4 °F 98.8 °F 55.4 °F 22% 29.91 in 10.0 mi West 10.4 mph - N/A Thunderstorm Clear
5:53 PM 91.9 °F 91.5 °F 60.1 °F 34% 29.84 in 10.0 mi NNE 13.8 mph - N/A Thunderstorm Mostly Cloudy
6:08 PM 91.4 °F 91.4 °F 60.8 °F 36% 29.93 in 10.0 mi NE 8.1 mph - N/A   Scattered Clouds
6:53 PM 88.0 °F 87.6 °F 60.1 °F 39% 29.85 in 10.0 mi East 12.7 mph 25.3 mph N/A   Partly Cloudy
7:05 PM 87.8 °F 87.6 °F 60.8 °F 40% 29.93 in 10.0 mi East 13.8 mph 23.0 mph N/A Thunderstorm Clear
7:20 PM 87.8 °F 88.5 °F 62.6 °F 43% 29.93 in 10.0 mi East 11.5 mph 19.6 mph N/A   Clear
7:53 PM 89.1 °F 89.3 °F 62.1 °F 40% 29.86 in 10.0 mi ESE 11.5 mph 19.6 mph N/A   Clear
8:53 PM 84.0 °F 84.9 °F 63.0 °F 49% 29.87 in 10.0 mi SE 12.7 mph - N/A   Clear
9:53 PM 82.9 °F 84.4 °F 64.0 °F 53% 29.88 in 10.0 mi SE 10.4 mph - N/A   Partly Cloudy
10:53 PM 82.9 °F 84.4 °F 64.0 °F 53% 29.87 in 10.0 mi SE 9.2 mph - N/A   Clear
11:53 PM 82.0 °F 83.1 °F 63.0 °F 52% 29.86 in 10.0 mi SSE 9.2 mph - N/A   Clear